CW2927 Weather Reports


time (UTC)temp
F
wind
direction
speed
knots
gust
knots
rain 1hr
in
rain 24hr
in
rain mn
in
humidity
%
barometer
mb
20260510022704 51 115 2.6 5.2 0.00 0.00 0.00 72 1006.5
20260510022205 51 131 2.6 7.8 0.00 0.00 0.00 72 1006.6
20260510020705 52 126 3.5 10.4 0.00 0.00 0.00 71 1006.5
20260510020205 52 116 3.5 7.8 0.00 0.00 0.00 70 1006.5
20260510014705 52 126 2.6 7.8 0.00 0.00 0.00 70 1006.6
20260510014204 52 125 3.5 13.9 0.00 0.00 0.00 69 1006.8
20260510012705 53 111 4.3 7.8 0.00 0.00 0.00 69 1006.9
20260510012205 53 129 2.6 13.9 0.00 0.00 0.00 69 1007.0
20260510010704 53 124 4.3 12.2 0.00 0.00 0.00 69 1007.0
20260510010205 53 122 2.6 13.9 0.00 0.00 0.00 70 1007.1
20260510004705 53 146 3.5 8.7 0.00 0.00 0.00 70 1007.0
20260510004204 53 150 4.3 15.6 0.00 0.00 0.00 70 1007.0
20260510002705 53 127 3.5 7.0 0.00 0.00 0.00 69 1006.8
20260510002204 53 128 3.5 11.3 0.00 0.00 0.00 69 1006.9
20260510000705 53 137 4.3 8.7 0.00 0.00 0.00 67 1006.8
20260510000205 54 119 4.3 10.4 0.00 0.00 0.00 67 1006.8
20260509234704 54 140 4.3 8.7 0.00 0.00 0.00 65 1006.9
20260509234205 55 144 2.6 10.4 0.00 0.00 0.00 64 1007.0
20260509232705 55 124 4.3 10.4 0.00 0.00 0.00 63 1006.9
20260509232205 56 135 4.3 11.3 0.00 0.00 0.00 62 1006.9
20260509230705 57 139 4.3 8.7 0.00 0.00 0.00 59 1006.8
20260509230204 58 130 4.3 13.0 0.00 0.00 0.00 58 1006.9
20260509224705 59 148 3.5 7.8 0.00 0.00 0.00 55 1006.7
20260509224205 59 129 4.3 14.8 0.00 0.00 0.00 54 1006.6
20260509222704 60 122 6.1 13.0 0.00 0.00 0.00 49 1006.5
20260509222204 61 130 5.2 11.3 0.00 0.00 0.00 49 1006.4
20260509220704 62 139 4.3 11.3 0.00 0.00 0.00 45 1006.4
20260509220204 62 133 5.2 12.2 0.00 0.00 0.00 44 1006.3
20260509214704 63 120 7.8 15.6 0.00 0.00 0.00 41 1006.3
20260509214205 63 134 5.2 17.4 0.00 0.00 0.00 40 1006.3
20260509212705 64 142 5.2 13.9 0.00 0.00 0.00 39 1006.3
20260509212205 64 145 7.0 15.6 0.00 0.00 0.00 37 1006.2
20260509210704 65 139 5.2 11.3 0.00 0.00 0.00 31 1006.1
20260509210204 66 114 4.3 10.4 0.00 0.00 0.00 30 1006.1
20260509204704 65 122 3.5 10.4 0.00 0.00 0.00 30 1006.1
20260509204205 65 139 4.3 14.8 0.00 0.00 0.00 30 1006.3
20260509202704 66 130 5.2 10.4 0.00 0.00 0.00 30 1006.3
20260509202205 66 161 5.2 13.0 0.00 0.00 0.00 29 1006.3
20260509200705 66 111 4.3 8.7 0.00 0.00 0.00 29 1006.4
20260509200204 66 157 3.5 13.9 0.00 0.00 0.00 29 1006.4
20260509194704 66 114 4.3 8.7 0.00 0.00 0.00 29 1006.4
20260509194204 66 154 2.6 12.2 0.00 0.00 0.00 29 1006.4
20260509192704 66 114 4.3 11.3 0.00 0.00 0.00 29 1006.6
20260509192204 66 129 6.1 10.4 0.00 0.00 0.00 29 1006.6
20260509190704 66 106 2.6 6.1 0.00 0.00 0.00 30 1006.7
20260509190205 66 145 4.3 10.4 0.00 0.00 0.00 32 1006.9
20260509184704 65 125 2.6 6.1 0.00 0.00 0.00 33 1007.2
20260509184204 65 163 2.6 7.8 0.00 0.00 0.00 32 1007.3
20260509182705 65 118 2.6 6.1 0.00 0.00 0.00 33 1007.7
20260509182205 65 172 2.6 8.7 0.00 0.00 0.00 35 1007.8
20260509180704 65 116 1.7 4.3 0.00 0.00 0.00 33 1007.9
20260509180205 64 120 2.6 8.7 0.00 0.00 0.00 34 1008.1
20260509174704 64 170 3.5 7.0 0.00 0.00 0.00 33 1008.4
20260509174204 64 128 2.6 8.7 0.00 0.00 0.00 32 1008.4
20260509172704 64 110 4.3 10.4 0.00 0.00 0.00 33 1008.6
20260509172204 64 170 2.6 10.4 0.00 0.00 0.00 35 1008.7
20260509170705 64 173 2.6 5.2 0.00 0.00 0.00 36 1008.9
20260509170205 63 189 2.6 8.7 0.00 0.00 0.00 35 1008.9
20260509164704 63 194 3.5 8.7 0.00 0.00 0.00 36 1009.2
20260509164204 63 199 2.6 13.0 0.00 0.00 0.00 34 1009.2
20260509162704 63 243 2.6 6.1 0.00 0.00 0.00 36 1009.5
20260509162205 63 178 3.5 7.8 0.00 0.00 0.00 34 1009.6
20260509160704 62 165 4.3 7.8 0.00 0.00 0.00 35 1009.7
20260509160205 62 169 4.3 7.8 0.00 0.00 0.00 36 1009.9
20260509154704 62 182 4.3 7.8 0.00 0.00 0.00 37 1010.1
20260509154204 61 219 2.6 10.4 0.00 0.00 0.00 38 1010.1
20260509152704 61 154 4.3 8.7 0.00 0.00 0.00 39 1010.3
20260509152204 61 168 4.3 10.4 0.00 0.00 0.00 36 1010.2
20260509150704 60 158 4.3 8.7 0.00 0.00 0.00 37 1010.3
20260509150204 60 160 4.3 11.3 0.00 0.00 0.00 39 1010.3
20260509144704 59 139 2.6 7.8 0.00 0.00 0.00 42 1010.4
20260509144204 59 121 4.3 10.4 0.00 0.00 0.00 40 1010.4
20260509142704 58 196 2.6 7.0 0.00 0.00 0.00 42 1010.5
20260509142204 58 179 4.3 10.4 0.00 0.00 0.00 43 1010.5
20260509140706 57 166 5.2 10.4 0.00 0.00 0.00 43 1010.7
20260509140204 57 181 4.3 10.4 0.00 0.00 0.00 43 1010.7
20260509134704 55 185 3.5 7.0 0.00 0.00 0.00 47 1010.8
20260509134204 55 179 4.3 10.4 0.00 0.00 0.00 47 1010.9
20260509132704 55 175 4.3 12.2 0.00 0.00 0.00 47 1011.0
20260509132204 55 189 2.6 8.7 0.00 0.00 0.00 50 1011.0
20260509130204 52 185 4.3 10.4 0.00 0.00 0.00 51 1011.0
20260509124204 51 187 3.5 13.0 0.00 0.00 0.00 54 1011.1
20260509122204 49 172 4.3 10.4 0.00 0.00 0.00 56 1011.2
20260509120704 47 171 4.3 7.0 0.00 0.00 0.00 61 1011.2
20260509120204 46 170 2.6 7.0 0.00 0.00 0.00 62 1011.2
20260509114704 45 165 2.6 7.8 0.00 0.00 0.00 63 1011.2
20260509114204 45 155 3.5 6.1 0.00 0.00 0.00 64 1011.2
20260509112704 43 167 1.7 2.6 0.00 0.00 0.00 68 1011.1
20260509112203 43 167 3.5 5.2 0.00 0.00 0.00 67 1011.2
20260509110704 42 168 2.6 4.3 0.00 0.00 0.00 70 1011.1
20260509110204 41 167 1.7 2.6 0.00 0.00 0.00 70 1011.1
20260509104704 41 167 1.7 2.6 0.00 0.00 0.00 72 1010.9
20260509104204 40 167 1.7 2.6 0.00 0.00 0.00 73 1010.9
20260509102204 39 167 0.9 2.6 0.00 0.00 0.00 76 1010.6
20260509100704 38 167 1.7 2.6 0.00 0.00 0.00 77 1010.6
20260509100204 38 167 0.9 2.6 0.00 0.00 0.00 77 1010.4
20260509094704 37 167 0.9 2.6 0.00 0.00 0.00 78 1010.2
20260509094204 37 167 0.9 2.6 0.00 0.00 0.00 78 1010.1
20260509092704 38 167 0.9 1.7 0.00 0.00 0.00 77 1010.1
20260509092204 38 167 0.9 1.7 0.00 0.00 0.00 77 1010.1
20260509090704 39 167 0.9 1.7 0.00 0.00 0.00 75 1010.2
20260509090204 39 167 0.9 2.6 0.00 0.00 0.00 74 1010.2
20260509084704 40 167 0.9 2.6 0.00 0.00 0.00 74 1010.2
20260509084204 40 167 0.9 2.6 0.00 0.00 0.00 74 1010.2
20260509082704 41 167 1.7 2.6 0.00 0.00 0.00 73 1010.3
20260509082204 41 167 0.9 2.6 0.00 0.00 0.00 73 1010.3
20260509080704 41 167 1.7 2.6 0.00 0.00 0.00 72 1010.3
20260509080204 41 167 1.7 2.6 0.00 0.00 0.00 72 1010.3
20260509074205 42 168 1.7 2.6 0.00 0.00 0.00 72 1010.2
20260509072705 42 165 1.7 2.6 0.00 0.00 0.00 71 1010.2
20260509072205 41 167 1.7 4.3 0.00 0.00 0.00 72 1010.2
20260509070705 41 167 2.6 4.3 0.00 0.00 0.00 74 1010.1
20260509070205 41 170 1.7 4.3 0.00 0.00 0.00 74 1010.0
20260509064705 40 170 1.7 2.6 0.00 0.00 0.00 75 1010.0
20260509064205 40 170 1.7 2.6 0.00 0.00 0.00 76 1010.0
20260509062705 39 171 0.9 1.7 0.00 0.00 0.00 78 1009.9
20260509062205 39 171 0.9 2.6 0.00 0.00 0.00 77 1010.0
20260509060705 39 171 0.9 1.7 0.00 0.00 0.00 78 1010.0
20260509060205 39 171 0.9 1.7 0.00 0.00 0.00 77 1010.0
20260509054705 40 171 0.9 1.7 0.00 0.00 0.00 77 1010.1
20260509054205 40 171 0.9 1.7 0.00 0.00 0.00 77 1010.1
20260509052705 40 171 0.9 1.7 0.00 0.00 0.00 76 1010.1
20260509052205 40 171 0.9 1.7 0.00 0.00 0.00 76 1010.1
20260509050705 41 171 0.9 1.7 0.00 0.00 0.00 75 1010.1
20260509050205 41 171 0.9 2.6 0.00 0.00 0.00 75 1010.1
20260509044705 41 171 0.9 2.6 0.00 0.00 0.00 75 1010.0
20260509044204 41 171 0.9 2.6 0.00 0.00 0.00 75 1010.1
20260509042704 40 171 0.9 2.6 0.00 0.00 0.00 76 1010.0
20260509042205 40 171 1.7 2.6 0.00 0.00 0.00 76 1010.0
20260509040704 40 171 0.9 1.7 0.00 0.00 0.00 77 1009.9
20260509040204 40 171 0.9 1.7 0.00 0.00 0.00 77 1009.8
20260509034705 40 171 0.9 0.9 0.00 0.00 0.00 75 1009.7
20260509034205 41 171 0.9 2.6 0.00 0.00 0.00 74 1009.7
20260509032705 41 171 1.7 2.6 0.00 0.00 0.00 73 1009.7
20260509032205 42 171 0.9 2.6 0.00 0.00 0.00 72 1009.6
20260509030708 42 171 0.9 2.6 0.00 0.00 0.00 71 1009.6
20260509030205 43 171 1.7 2.6 0.00 0.00 0.00 71 1009.6
20260509024705 43 171 1.7 2.6 0.00 0.00 0.00 69 1009.6
20260509024205 44 171 1.7 5.2 0.00 0.00 0.00 69 1009.6